DLH534 SKBO-EDDF

Flight info

Callsign DLH534
Flight time N/A
Altitude 29000
Route OSUSU4R KOVBU UW1 PIE/N0507F310 UW1 ENPUT UG431 ALCOT UL325 PJG UM576 MILOK M576 PJM DCT OBIKE/M084F310 M576 RKDIA/M084F330 DCT 25N055W 28N050W 32N045W 35N040W/M084F350 39N030W 4230N02000W/M084F370 DCT GONAN DCT SEPAL UN470 LAPEX/N0481F370 DCT OZNOH/N0474F380 DCT BULOX DCT TABOV DCT TSU UN858 OQQAL DCT RANUX/N0472F390 DCT VALEK DCT LUTAX DCT DIK T856 NIVNU T847 IMCOM IMCOM1D
Aircraft A343/H-SDE2E3FGHIJ4J5M1RWXY/LB1D1

Departure

Time 2026-05-01 10:04
Airport El Dorado International Airport (SKBO)

Arrival

Time N/A
Airport Frankfurt Main Airport (EDDF)
Time Latitude Longitude Altitude Speed Heading
2026-05-01 09:35 4.69807 -74.13870 8370 ft 0 kts 217°
2026-05-01 09:48 4.69822 -74.13860 8370 ft 4 kts 180°
2026-05-01 09:48 4.69841 -74.13857 8370 ft 4 kts 213°
2026-05-01 09:48 4.69864 -74.13848 8370 ft 4 kts 170°
2026-05-01 09:48 4.69889 -74.13858 8370 ft 4 kts 147°
2026-05-01 09:49 4.69911 -74.13871 8370 ft 4 kts 161°
2026-05-01 09:49 4.69936 -74.13874 8370 ft 4 kts 202°
2026-05-01 09:49 4.69954 -74.13864 8370 ft 4 kts 225°
2026-05-01 09:49 4.69964 -74.13843 8370 ft 4 kts 282°
2026-05-01 09:50 4.69953 -74.13820 8370 ft 4 kts 307°
2026-05-01 09:50 4.69947 -74.13811 8370 ft 1 kts 307°
2026-05-01 09:50 4.69961 -74.13831 8370 ft 4 kts 307°
2026-05-01 09:50 4.69978 -74.13852 8370 ft 4 kts 307°
2026-05-01 09:51 4.69994 -74.13874 8370 ft 4 kts 307°
2026-05-01 09:51 4.70010 -74.13895 8370 ft 4 kts 307°
2026-05-01 09:51 4.70027 -74.13917 8370 ft 4 kts 307°
2026-05-01 09:51 4.70043 -74.13939 8370 ft 4 kts 307°
2026-05-01 09:52 4.70056 -74.13955 8370 ft 0 kts 307°
2026-05-01 09:54 4.70062 -74.13963 8370 ft 5 kts 307°
2026-05-01 09:54 4.70092 -74.13984 8370 ft 4 kts 345°
2026-05-01 09:55 4.70117 -74.13979 8369 ft 3 kts 22°
2026-05-01 09:55 4.70137 -74.13970 8370 ft 2 kts 16°
2026-05-01 09:55 4.70145 -74.13971 8369 ft 1 kts 358°
2026-05-01 09:55 4.70152 -74.13974 8369 ft 2 kts 340°
2026-05-01 09:56 4.70166 -74.13985 8370 ft 4 kts 318°
2026-05-01 09:56 4.70200 -74.14028 8370 ft 12 kts 307°
2026-05-01 09:56 4.70267 -74.14116 8370 ft 20 kts 307°
2026-05-01 09:56 4.70363 -74.14244 8370 ft 25 kts 307°
2026-05-01 09:57 4.70463 -74.14377 8370 ft 24 kts 306°
2026-05-01 09:57 4.70560 -74.14504 8371 ft 23 kts 307°
2026-05-01 09:57 4.70654 -74.14627 8371 ft 22 kts 307°
2026-05-01 09:57 4.70751 -74.14756 8370 ft 24 kts 307°
2026-05-01 09:58 4.70854 -74.14893 8371 ft 25 kts 307°
2026-05-01 09:58 4.70961 -74.15033 8370 ft 26 kts 307°
2026-05-01 09:58 4.71046 -74.15146 8370 ft 9 kts 307°
2026-05-01 09:58 4.71078 -74.15188 8370 ft 7 kts 308°
2026-05-01 09:59 4.71109 -74.15210 8370 ft 4 kts 342°
2026-05-01 09:59 4.71131 -74.15212 8371 ft 3 kts 354°
2026-05-01 09:59 4.71154 -74.15215 8371 ft 4 kts 354°
2026-05-01 09:59 4.71176 -74.15217 8370 ft 2 kts 354°
2026-05-01 10:00 4.71186 -74.15218 8370 ft 1 kts 354°
2026-05-01 10:00 4.71190 -74.15218 8370 ft 2 kts 354°
2026-05-01 10:00 4.71228 -74.15223 8370 ft 8 kts 354°
2026-05-01 10:00 4.71280 -74.15226 8370 ft 6 kts
2026-05-01 10:01 4.71314 -74.15208 8370 ft 5 kts 35°
2026-05-01 10:01 4.71315 -74.15206 8369 ft 0 kts 35°
2026-05-01 10:01 4.71320 -74.15203 8369 ft 3 kts 35°
2026-05-01 10:01 4.71324 -74.15192 8369 ft 1 kts 77°
2026-05-01 10:02 4.71324 -74.15190 8369 ft 0 kts 82°
2026-05-01 10:02 4.71324 -74.15187 8370 ft 1 kts 89°
2026-05-01 10:02 4.71321 -74.15181 8369 ft 1 kts 113°
2026-05-01 10:02 4.71316 -74.15174 8369 ft 2 kts 123°
2026-05-01 10:03 4.71285 -74.15134 8369 ft 20 kts 127°
2026-05-01 10:03 4.71100 -74.14888 8368 ft 67 kts 127°
2026-05-01 10:03 4.70730 -74.14399 8371 ft 107 kts 127°
2026-05-01 10:03 4.70209 -74.13711 8369 ft 141 kts 127°
2026-05-01 10:04 4.69555 -74.12847 8369 ft 169 kts 127°
2026-05-01 10:04 4.68991 -74.12099 8474 ft 0 kts 124°
2026-05-01 10:04 4.68369 -74.11194 8894 ft 187 kts 122°
2026-05-01 10:04 4.67866 -74.09996 9187 ft 194 kts 97°
2026-05-01 10:05 4.68276 -74.08769 9491 ft 184 kts 35°
2026-05-01 10:05 4.69401 -74.08276 9873 ft 178 kts 22°
2026-05-01 10:05 4.70644 -74.08035 10075 ft 187 kts 10°
2026-05-01 10:05 4.71949 -74.07809 10198 ft 193 kts 11°
2026-05-01 10:06 4.73301 -74.07559 10281 ft 200 kts 12°
2026-05-01 10:06 4.74696 -74.07294 10409 ft 208 kts 12°
2026-05-01 10:06 4.75652 -74.07109 10482 ft 214 kts 12°
2026-05-01 10:06 4.77648 -74.06722 10588 ft 226 kts 13°
2026-05-01 10:07 4.79225 -74.06306 10663 ft 243 kts 19°
2026-05-01 10:07 4.80340 -74.05946 10488 ft 257 kts 20°
2026-05-01 10:07 4.82085 -74.05354 10708 ft 277 kts 20°
2026-05-01 10:07 4.83955 -74.04719 11068 ft 288 kts 20°
2026-05-01 10:08 4.87852 -74.03402 12121 ft 299 kts 21°
2026-05-01 10:08 4.89849 -74.02723 12652 ft 306 kts 21°
2026-05-01 10:08 4.91888 -74.02027 12916 ft 320 kts 21°
2026-05-01 10:09 4.94040 -74.01296 13186 ft 334 kts 21°
2026-05-01 10:09 4.96288 -74.00534 13442 ft 347 kts 21°
2026-05-01 10:09 4.98601 -73.99748 13708 ft 361 kts 21°
2026-05-01 10:09 5.01028 -73.98924 13954 ft 374 kts 21°
2026-05-01 10:10 5.03564 -73.98111 14164 ft 389 kts 17°
2026-05-01 10:10 5.06240 -73.97452 14421 ft 401 kts 15°
2026-05-01 10:10 5.11723 -73.96159 15309 ft 410 kts 15°
2026-05-01 10:11 5.14511 -73.95482 15522 ft 413 kts 16°
2026-05-01 10:11 5.17310 -73.94796 15781 ft 415 kts 16°
2026-05-01 10:11 5.20093 -73.94109 16066 ft 417 kts 16°
2026-05-01 10:11 5.22915 -73.93410 16354 ft 419 kts 16°
2026-05-01 10:12 5.25764 -73.92703 16581 ft 422 kts 16°
2026-05-01 10:12 5.28620 -73.91997 16888 ft 422 kts 16°
2026-05-01 10:12 5.34353 -73.90567 17487 ft 426 kts 16°
2026-05-01 10:13 5.37238 -73.89847 17774 ft 428 kts 16°
2026-05-01 10:13 5.40115 -73.89130 18017 ft 430 kts 16°
2026-05-01 10:13 5.43029 -73.88404 18221 ft 432 kts 16°